Other Public Products
Issued by NWS Grand Forks, ND

Home | Current Version | Previous Version | Graphics & Text | Print | Product List | Glossary On
Versions: 1 2 3 4 5 6 7 8 9 10 11 12 13 14 15 16 17 18 19 20 21 22 23 24 25 26 27 28 29 30 31 32 33 34 35 36 37 38 39 40 41 42 43 44 45 46 47 48 49 50
000
FPUS83 KFGF 251931
OPUFGF
PRAIRIE TO PINES WEATHER ROUNDUP
NATIONAL WEATHER SERVICE EASTERN NORTH DAKOTA/GRAND FORKS ND
200 PM CDT SUN JUN 25 2017

 **SATELLITE DATA USED TO AUGMENT SKY COVER AT AUTOMATED STATIONS**
 *****  WEATHER ACROSS EASTERN NORTH DAKOTA  *****

CITY           SKY/WX    TMP DP  RH WIND       PRES   REMARKS
GRAND FORKS    PTSUNNY   64  44  48 N9G22     30.20F
GRAND FORKS AF FAIR      65  42  43 N15       30.21F
GRAND CITY NWS NOT AVBL
BUXTON           N/A     65  45  47 N7          N/A
DEVILS LAKE    CLOUDY    62  42  47 NW10G18   30.23F
FARGO          FAIR      67  41  38 NW16G29   30.19F
WAHPETON ARPT  FAIR      64  37  36 N14G21    30.20F
$$

 *****  WEATHER ACROSS CENTRAL AND WESTERN NORTH DAKOTA  *****

CITY           SKY/WX    TMP DP  RH WIND       PRES   REMARKS
JAMESTOWN      PTSUNNY   65  46  50 NW12      30.22F
BISMARCK       FAIR      61  50  67 SW5       30.26F
MINOT          PTSUNNY   67  44  43 VRB5      30.23F
MINOT AFB      FAIR      67  42  41 N10G17    30.23S
GARRISON         N/A     64  47  53 N9        30.23F
WILLISTON      PTSUNNY   71  44  37 CALM      30.26F
DICKINSON      FAIR      70  32  24 N9        30.24F
HETTINGER      FAIR      72  36  26 N9G18     30.26S
$$

 *****  OTHER OBSERVATIONS NORTHEAST NORTH DAKOTA  *****

CITY           SKY/WX    TMP DP  RH WIND       PRES   REMARKS
WALHALLA       NOT AVBL
LANGDON        MOCLDY    63  41  45 N10G17    30.24S
CAVALIER       DRIZZLE   59  45  58 N15G22    30.22S
GRAFTON        FAIR      64  43  45 NW14G20   30.22F
CANDO          NOT AVBL
FORT TOTTEN    NOT AVBL
ROLLA            N/A     61  39  44 N13G18    30.25F
RUGBY          NOT AVBL
 ***** THE ABOVE OBSERVATIONS ARE NON NWS ARE NOT QUALITY
        CONTROLLED AND MAY MIS-REPORT RAIN FOR SNOW...
$$

 *****  OTHER OBSERVATIONS SOUTHEAST NORTH DAKOTA *****

CITY           SKY/WX    TMP DP  RH WIND       PRES   REMARKS
COOPERSTOWN    FAIR      64  43  45 NW13      30.22F
VALLEY CITY    MOCLDY    64  46  52 NW13      30.23F
OAKES          NOT AVBL
GWINNER        PTCLDY    66  45  45 W15G22    30.23F
SHEYENNE NWR     N/A     65  44  46 NW8       29.95S
BUFFALO          N/A     63  40  43 N12G26      N/A
WYNDMERE       NOT AVBL
 ***** THE ABOVE OBSERVATIONS ARE NON NWS ARE NOT QUALITY
       CONTROLLED AND MAY MIS-REPORT RAIN FOR SNOW...
$$

  *****  WEATHER ACROSS NORTHERN MINNESOTA  *****

CITY           SKY/WX    TMP DP  RH WIND       PRES   REMARKS
FLAG ISLAND    FAIR      54  45  71 W12       30.15S
WARROAD        FAIR      54  50  87 CALM      30.18F
ROSEAU         LGT RAIN  57  48  72 NW18G24   30.18S
HALLOCK        FAIR      63  43  48 N14       30.19F
THF RVR FALLS  PTSUNNY   61  43  51 NW13      30.20F
HALSTAD          N/A     64  43  45 N10         N/A
FOSSTON        PTSUNNY   61  43  51 NW16      30.19F
BAUDETTE       FAIR      59  45  59 N14       30.15F
WASKISH        RAIN      52  46  82 NW6       30.17R
CROOKSTON      FAIR      64  43  45 N12G22    30.20F
$$
  *****  WEATHER ACROSS CENTRAL AND WEST MINNESOTA  *****

CITY           SKY/WX    TMP DP  RH WIND       PRES   REMARKS
BEMIDJI        PTSUNNY   59  40  49 NW13      30.16S
PARK RAPIDS    PTSUNNY   64  39  39 NW18G28   30.17F
WADENA         FAIR      61  43  51 W12G20    30.18F
DETROIT LAKES  FAIR      59  41  51 NW16G22   30.21S
MOORHEAD       FAIR      64  41  42 NW10      30.20F
FERGUS FALLS   FAIR      64  43  45 NW10G20   30.19S
ELBOW LAKE     MOCLDY    61  44  52 NW14G20   30.21F
MORRIS MN      FAIR      68  43  40 NW14G20   30.21F
STAPLES        PTSUNNY   61  37  41 NW16      30.17F
WHEATON        FAIR      68  43  40 NW14G22   30.23F
$$
  *****  WEATHER ELSEWHERE ACROSS MINNESOTA  *****

CITY           SKY/WX    TMP DP  RH WIND       PRES   REMARKS
DULUTH         PTSUNNY   55  45  68 N18G26    30.07S
INTRNTL FALLS  FAIR      59  43  55 N10G22    30.12S
ELY            RAIN      48  48 100 NW6       30.08R
CLOQUET        PTSUNNY   57  43  58 NW15G29   30.09F
BRAINERD       PTSUNNY   63  41  44 W13G22    30.16S
HIBBING        PTSUNNY   57  44  62 N21G30    30.10S
ALEXANDRIA     FAIR      65  42  43 NW17G29   30.21F
SAINT CLOUD    FAIR      67  42  40 NW20G25   30.15F
MINNEAPOLIS    PTSUNNY   67  46  47 W18G28    30.14F
$$

  *****  WEATHER ACROSS SOUTH DAKOTA  *****

CITY           SKY/WX    TMP DP  RH WIND       PRES   REMARKS
SIOUX FALLS    FAIR      69  47  45 N15G21    30.26F
BROOKINGS      NOT AVBL
WATERTOWN      FAIR      66  43  43 NW10      30.25F
HURON          FAIR      71  43  36 N7        30.27F
SISSETON         N/A     67  42  40 NW18G25   30.21F
ABERDEEN       PTSUNNY   64  42  44 N15       30.27S
MITCHELL       FAIR      72  38  29 N10G20    30.28
PIERRE         FAIR      74  36  25 W6        30.24
MOBRIDGE       FAIR      75  36  24 VRB3      30.19F
RAPID CITY     FAIR      74  35  24 VRB3      30.27F
$$

  *****  SOME WEATHER IN NEARBY STATES *****

CITY           SKY/WX    TMP DP  RH WIND       PRES   REMARKS
GLASGOW MT     FAIR      75  38  26 NW8       30.25F
GREAT FALLS MT FAIR      76  43  30 E6        30.25F
CHEYENNE WY    FAIR      64  47  53 SE13      30.38F
SCOTTSBLUFF NE FAIR      76  42  29 SE10G16   30.30F
OMAHA NE       FAIR      73  41  31 NW16G25   30.28F
DES MOINES IA  FAIR      72  42  34 NW21G29   30.23F
DAVENPORT IA   CLOUDY    66  48  52 W17G25    30.18S
CHICAGO IL     PTSUNNY   70  45  40 W18G24    30.08F
EAU CLAIRE WI  LGT RAIN  58  54  86 NW17G23   30.08S
LA CROSSE WI   PTSUNNY   71  51  49 W13G22    30.11S
$$

  *****  SOME NATIONAL WEATHER *****

CITY           SKY/WX    TMP DP  RH WIND       PRES   REMARKS
LA GUARDIA NY  PTSUNNY   82  57  42 S16       29.92F
RALEIGH NC     PTSUNNY   83  62  49 N9        30.07F
ATLANTA GA     PTSUNNY   78  64  61 NW14      30.14F
NEW ORLEANS LA PTSUNNY   85  74  69 N7G17     30.12F HX  92
OKLAHOMA CITY  FAIR      86  44  23 SE14      30.25F
ALBUQUERQUE NM PTSUNNY   84  50  30 SW14G20   30.26F
SALT LAKE CITY FAIR      89  40  17 VRB3      30.18S
LOS ANGELES CA FAIR      72  62  71 W14       29.90F
BOISE ID       FAIR      88  44  21 CALM      30.10F
SEATTLE WA     PTSUNNY   85  55  35 W8        29.91F
$$

*** WEATHER ACROSS MANITOBA...SASKATCHEWAN AND ONTARIO ***
                ***ONTARIO***

CITY           SKY/WX    TMP DP  RH WIND       PRES   REMARKS
GERALDTON      PTSUNNY   59  34  38 N10       30.04S
THUNDER BAY    CLOUDY    55  54  94 W3        30.03S
SIOUX LOOKOUT  CLOUDY    57  41  54 E5        30.09F
TORONTO        PTSUNNY   70  50  49 W17G26    29.91F
BIG TROUT LK   PTSUNNY   63  39  42 VRB5      30.02F
PICKLE LAKE    PTSUNNY   59  41  51 W16       30.05F
DRYDEN         CLOUDY    55  41  58 VRB2      30.11S
KENORA         PTSUNNY   57  41  54 N8        30.14F
$$
                *** MANITOBA***

CITY           SKY/WX    TMP DP  RH WIND       PRES   REMARKS
BRANDON        PTSUNNY   63  41  45 NE3       30.24F
DAUPHIN        MOSUNNY   64  45  48 N9        30.24F
ISLAND LAKE    PTSUNNY   64  41  42 W14       30.08F
PILOT MOUND      N/A     59  41  51 N10         N/A
THE PAS        MOSUNNY   66  39  37 NW7       30.21F
THOMPSON       PTSUNNY   66  41  39 N14G22    30.10S
WINNIPEG       PTSUNNY   61  46  59 NW17      30.20F
LYNN LAKE      PTSUNNY   63  37  39 NW9G23    30.17F
CHURCHILL      MOSUNNY   50  39  66 N14       30.07F
GILLAM         LGT RAIN  59  48  67 N13       30.04S
$$
                ***SASKATCHEWAN***

CITY           SKY/WX    TMP DP  RH WIND       PRES   REMARKS
ESTEVAN        PTSUNNY   63  43  48 NW6       30.26S
KINDERSLEY     MOSUNNY   66  45  45 NE7       30.28F
LLOYDMINSTER   MOSUNNY   68  46  45 S12       30.27F
PRINCE ALBERT  MOSUNNY   66  36  32 SW6       30.29F
REGINA         PTSUNNY   68  43  40 NE6G17    30.27F
YORKTON        PTSUNNY   64  37  36 NW6       30.27F


USA.gov is the U.S. government's official web portal to all federal, state and local government web resources and services.